Location: Ferintosh
(52.7647°N, 112.9692°W)
Time: 14:12:00
(UTC+00:00)

Transit 2A - Pass Details

Date: 18 May 2024
Orbit: 593 x 959 km, 66.7° (Epoch: 14 June)

Event Time Altitude Azimuth Distance (km) Brightness Sun altitude
Rises 10:32:59 0° 283° (WNW) 3,079 8.8 -7.2°
Reaches altitude 10° 10:35:49 10° 300° (WNW) 2,229 8.3 -6.9°
Maximum altitude 10:39:36 20° 348° (NNW) 1,717 8.3 -6.5°
Drops below altitude 10° 10:43:39 10° 35° (NE) 2,417 10.3 -6.1°
Sets 10:46:53 0° 52° (NE) 3,425 12.0 -5.8°
